This is the latest recevied weather packets stored in our database for station/object N5ATR. If no packets are shown the sender has not sent any weather packets the latest 10 day(s).
| Time | Temp. | Humidity | Pressure | Rain* | Wind** | Luminosity | Snow |
|---|---|---|---|---|---|---|---|
| 1787902589 | 14.44° C | 75% | 1027.2 hPa | 0 mm | - | 0 W/m² | - |
| 1787902288 | 14.44° C | 76% | 1027.3 hPa | 0 mm | - | 0 W/m² | - |
| 1787901984 | 15° C | 75% | 1027.1 hPa | 0 mm | - | 0 W/m² | - |
| 1787901680 | 15° C | 74% | 1027.2 hPa | 0 mm | - | 0 W/m² | - |
| 1787901380 | 15° C | 74% | 1027.3 hPa | 0 mm | - | 0 W/m² | - |
| 1787901077 | 15.56° C | 72% | 1027.3 hPa | 0 mm | - | 0 W/m² | - |
| 1787900776 | 15.56° C | 72% | 1027.4 hPa | 0 mm | - | 0 W/m² | - |
| 1787900472 | 15.56° C | 72% | 1027.3 hPa | 0 mm | - | 0 W/m² | - |
| 1787900170 | 15.56° C | 74% | 1027.2 hPa | 0 mm | - | 0 W/m² | - |
| 1787899866 | 16.11° C | 71% | 1027.6 hPa | 0 mm | - | 0 W/m² | - |
| 1787899562 | 16.67° C | 69% | 1027.2 hPa | 0 mm | - | 0 W/m² | - |
| 1787899262 | 17.22° C | 68% | 1027.4 hPa | 0 mm | - | 0 W/m² | - |
| 1787898956 | 17.22° C | 66% | 1027.2 hPa | 0 mm | - | 0 W/m² | - |
| 1787898653 | 17.78° C | 66% | 1027.3 hPa | 0 mm | - | 0 W/m² | - |
| 1787898350 | 17.78° C | 66% | 1027.3 hPa | 0 mm | - | 0 W/m² | - |
| 1787898046 | 17.78° C | 64% | 1027.3 hPa | 0 mm | - | 0 W/m² | - |
| 1787897741 | 17.78° C | 64% | 1027.4 hPa | 0 mm | - | 0 W/m² | - |
| 1787897440 | 18.89° C | 62% | 1027.1 hPa | 0 mm | - | 0 W/m² | - |
| 1787897139 | 18.89° C | 57% | 1027.2 hPa | 0 mm | - | 0 W/m² | - |
| 1787896833 | 18.33° C | 59% | 1027.3 hPa | 0 mm | - | 0 W/m² | - |
| 1787896529 | 18.89° C | 63% | 1027.6 hPa | 0 mm | - | 0 W/m² | - |
| 1787896225 | 19.44° C | 57% | 1027.4 hPa | 0 mm | - | 0 W/m² | - |
| 1787895921 | 18.89° C | 56% | 1027.6 hPa | 0 mm | - | 0 W/m² | - |
| 1787895621 | 18.33° C | 60% | 1027.7 hPa | 0 mm | - | 0 W/m² | - |
| 1787895316 | 17.22° C | 66% | 1028.2 hPa | 0 mm | - | 0 W/m² | - |
* Rain latest hour (hover to see other rain measurements)
** Current wind speed in m/s (hover to see current wind gust speed)